User: anonymous
Location: Unspecified
(0.0000°N, 0.0000°E)
Time: 21:59:33
(UTC+00:00)
Language:

Optus B1 - Orbit

View from above orbital plane
View from above orbital plane
View from above satellite
View from above satellite

Ground track
Ground track

The orbit data is extracted from the following two-line orbital elements,

1 22087U 92054A   14233.24600377 -.00000064  00000-0  00000+0 0  9722
2 22087 007.0109 054.9978 0011591 043.9230 339.9430 00.99206949 91861
Epoch (UTC): 21 August 2014 05:54:14
Eccentricity: 0.0011591
inclination: 7.0109°
perigee height: 36038 km
apogee height: 36136 km
right ascension of ascending node: 54.9978°
argument of perigee: 43.9230°
revolutions per day: 0.99206949
mean anomaly at epoch: 339.9430°
orbit number at epoch: 9186

The dashed part of the orbit path shows where the satellite is in the earth's shadow,  

DLR